Main page
METAR-TAF:

METAR-TAF

Airports :

Air Force Station

Cape Canaveral, Florida, United States

latitude: 28-28N, longitude: 080-33W, elevation: 10 ft

Current weather observation

The report was made 34 minutes ago, at 06:56 UTC
Wind 12 mph from the East
Temperature 73°F
Humidity 65%
Pressure 30.12 in. Hg
Visibility: 10 miles
Clear sky

METAR: KXMR 180656Z AUTO 10010KT 10SM CLR 23/16 A3012 RMK AO2 SLP203 T02270160 $

Time: 03:30 (07:30 UTC)


TAF: missing

Weather observations and forecasts of more than 4000 airports (METAR and TAF reports).

The available stations are represented by yellow and red dots on the map.

Hover mouse over dot to see the name of the station.

Then click to see weather observations and forecasts.

To change the map : click on the green buttons with a black cross to zoom in, on the green button with a dash to zoom out, or on the green arrows for adjacent maps.


METAR-TAF: